Location: Aula-Vintri
(58.3875°N, 22.4322°E)
Time: 08:02:15
(UTC+00:00)

Cosmos 2278 Rocket - Pass Details

Date: 13 October 2019
Orbit: 840 x 847 km, 71.0° (Epoch: 12 November)

Event Time Altitude Azimuth Distance (km) Brightness Sun altitude
Rises 17:12:09 0° 160° (SSE) 3,397 5.1 -14.0°
Reaches altitude 10° 17:15:14 10° 144° (SE) 2,468 4.2 -14.4°
Enters shadow 17:15:46 12° 139° (SE) 2,337 4.1 -14.4°
Exits shadow 17:26:08 - 41° (NE) 3,441 5.1 -15.8°
